Regional Weather Roundup
Issued by NWS

Home | Current Version | Previous Version | Text Only | Print | Product List | Glossary On
Versions: 1 2 3 4 5 6 7 8 9 10 11 12 13 14 15 16 17 18 19 20 21 22 23 24 25 26 27 28 29 30 31 32 33 34 35 36 37 38 39 40 41 42 43 44 45 46 47 48 49 50
000
ASUS45 KBOI 310710
RWRID
WEATHER ROUNDUP FOR IDAHO
NATIONAL WEATHER SERVICE BOISE ID
100 AM MDT THU JUL 31 2014

NOTE: "FAIR" INDICATES FEW OR NO CLOUDS BELOW 12000 FEET
WITH NO SIGNIFICANT WEATHER AND/OR OBSTRUCTIONS TO VISIBILITY

IDZ012-014-310800-
SOUTHWEST IDAHO


CITY           SKY/WX    TMP DP  RH WIND       PRES   REMARKS
BOISE          PTCLDY    78  47  33 SE16      30.11R
CALDWELL       PTCLDY    70  46  43 E10       30.09S
MOUNTAIN HOME  MOCLDY    77  48  35 E7        30.11S
$$

IDZ016-017-310800-
SOUTHCENTRAL IDAHO


CITY           SKY/WX    TMP DP  RH WIND       PRES   REMARKS
BURLEY         MOCLDY    65  53  65 SE8       30.19R
JEROME         MOCLDY    67  52  58 NE12      30.19S
TWIN FALLS     MOCLDY    68  48  48 SE7       30.19S
$$

IDZ019>023-310800-
SOUTHEAST IDAHO


CITY           SKY/WX    TMP DP  RH WIND       PRES   REMARKS
IDAHO FALLS    PTCLDY    64  52  64 CALM      30.27S
POCATELLO      CLEAR     65  50  58 CALM      30.24S
REXBURG        PTCLDY    63  48  58 S6        30.27R
$$

IDZ006-010-011-018-031-032-310800-
CENTRAL IDAHO MOUNTAINS


CITY           SKY/WX    TMP DP  RH WIND       PRES   REMARKS
MCCALL         PTCLDY    59  46  62 S3        30.25S
HAILEY         CLEAR     59  52  77 NW9       30.31S
STANLEY          N/A     46  44  93 CALM      30.42S
SALMON         CLEAR     68  46  45 NE6       30.23S
CHALLIS        PTCLDY    55  45  68 CALM      30.31R
$$

IDZ002-004-006-007-026-310800-
NORTHERN IDAHO


CITY           SKY/WX    TMP DP  RH WIND       PRES   REMARKS
LEWISTON       PTCLDY    82  41  23 S5        29.98R
LOWELL           N/A     68  55  63 VRB5      30.06R
COEUR D`ALENE  CLEAR     72  54  53 S3        30.03R
MULLAN PASS    PTCLDY    71  35  26 W3        30.31S
$$



USA.gov is the U.S. government's official web portal to all federal, state and local government web resources and services.